When you browse on this site, cookies collect data to enhance your experience and personalize the content and advertising you see.
Visit our Privacy Policy to learn more. By continuing to use the site, you agree to this use of cookies and data.
  • en Suisse
  • Liste des pays
  • À 7 jours
  • Température de l'eau
  • Carte satellitaire
  • Carte météo
  • Widgets météo
  • user-avatar
    Se connecter

    Météo par heure à Tovste

    Ce jour, 17 Juillet, Mercredi

    Heure Température Précipitation Vent Pression Humidité
    00:00 +16°C° 0 mm 1 m/s 743 mmHg 93%
    01:00 +16°C° 0 mm 1 m/s 743 mmHg 93%
    02:00 +16°C° 0 mm 1 m/s 743 mmHg 93%
    03:00 +16°C° 0 mm 1 m/s 743 mmHg 92%
    04:00 +16°C° 0 mm 1 m/s 743 mmHg 91%
    05:00 +18°C° 0 mm 1 m/s 743 mmHg 90%
    06:00 +19°C° 0 mm 1 m/s 743 mmHg 83%
    07:00 +20°C° 0 mm 2 m/s 743 mmHg 76%
    08:00 +21°C° 0 mm 2 m/s 743 mmHg 69%
    09:00 +24°C° 0 mm 3 m/s 743 mmHg 62%
    10:00 +25°C° 0 mm 3 m/s 743 mmHg 55%
    11:00 +26°C° 0 mm 3 m/s 743 mmHg 48%
    12:00 +27°C° 0 mm 4 m/s 743 mmHg 47%
    13:00 +27°C° 0 mm 4 m/s 743 mmHg 46%
    14:00 +27°C° 0 mm 4 m/s 743 mmHg 45%
    15:00 +27°C° 0 mm 4 m/s 743 mmHg 45%
    16:00 +27°C° 0 mm 3 m/s 743 mmHg 46%
    17:00 +26°C° 0 mm 3 m/s 743 mmHg 47%
    18:00 +25°C° 0 mm 2 m/s 743 mmHg 52%
    19:00 +23°C° 0 mm 2 m/s 743 mmHg 57%
    20:00 +20°C° 0 mm 2 m/s 744 mmHg 61%
    21:00 +19°C° 0 mm 2 m/s 744 mmHg 64%
    22:00 +19°C° 0 mm 1 m/s 744 mmHg 67%
    23:00 +18°C° 0 mm 1 m/s 744 mmHg 70%

    Demain, 18 Juillet, Jeudi

    Heure Température Précipitation Vent Pression Humidité
    00:00 +18°C° 0 mm 1 m/s 744 mmHg 74%
    01:00 +16°C° 0 mm 1 m/s 744 mmHg 78%
    02:00 +16°C° 0 mm 1 m/s 744 mmHg 82%
    03:00 +15°C° 0 mm 0 m/s 744 mmHg 80%
    04:00 +16°C° 0 mm 0 m/s 744 mmHg 79%
    05:00 +16°C° 0 mm 0 m/s 744 mmHg 78%
    06:00 +20°C° 0 mm 1 m/s 744 mmHg 71%
    07:00 +21°C° 0 mm 2 m/s 745 mmHg 63%
    08:00 +24°C° 0 mm 2 m/s 745 mmHg 55%
    09:00 +25°C° 0 mm 3 m/s 745 mmHg 51%
    10:00 +26°C° 0 mm 4 m/s 745 mmHg 47%
    11:00 +27°C° 0 mm 4 m/s 745 mmHg 42%
    12:00 +28°C° 0 mm 4 m/s 745 mmHg 41%
    13:00 +28°C° 0 mm 4 m/s 745 mmHg 39%
    14:00 +28°C° 0 mm 4 m/s 745 mmHg 37%
    15:00 +28°C° 0 mm 4 m/s 745 mmHg 38%
    16:00 +28°C° 0 mm 4 m/s 745 mmHg 39%
    17:00 +27°C° 0 mm 4 m/s 745 mmHg 40%
    18:00 +25°C° 0 mm 4 m/s 746 mmHg 47%
    19:00 +22°C° 0 mm 3 m/s 746 mmHg 54%
    20:00 +19°C° 0 mm 2 m/s 746 mmHg 61%
    21:00 +19°C° 0 mm 2 m/s 746 mmHg 64%
    22:00 +18°C° 0 mm 2 m/s 747 mmHg 67%
    23:00 +18°C° 0 mm 1 m/s 747 mmHg 70%

    Après-demain, 19 Juillet, Vendredi

    Heure Température Précipitation Vent Pression Humidité
    00:00 +16°C° 0 mm 1 m/s 747 mmHg 71%
    01:00 +16°C° 0 mm 1 m/s 747 mmHg 73%
    02:00 +14°C° 0 mm 0 m/s 747 mmHg 74%
    03:00 +16°C° 0 mm 1 m/s 748 mmHg 74%
    04:00 +16°C° 0 mm 1 m/s 748 mmHg 75%
    05:00 +16°C° 0 mm 1 m/s 748 mmHg 75%
    06:00 +18°C° 0 mm 2 m/s 748 mmHg 69%
    07:00 +20°C° 0 mm 2 m/s 749 mmHg 63%
    08:00 +24°C° 0 mm 3 m/s 749 mmHg 57%
    09:00 +25°C° 0 mm 3 m/s 749 mmHg 52%
    10:00 +26°C° 0 mm 3 m/s 749 mmHg 47%
    11:00 +27°C° 0 mm 3 m/s 749 mmHg 43%
    12:00 +28°C° 0 mm 4 m/s 749 mmHg 41%
    13:00 +28°C° 0 mm 4 m/s 749 mmHg 39%
    14:00 +29°C° 0 mm 4 m/s 749 mmHg 37%
    15:00 +28°C° 0 mm 4 m/s 749 mmHg 38%
    16:00 +28°C° 0 mm 4 m/s 749 mmHg 39%
    17:00 +27°C° 0 mm 3 m/s 749 mmHg 40%
    18:00 +25°C° 0 mm 3 m/s 749 mmHg 47%
    19:00 +22°C° 0 mm 3 m/s 749 mmHg 53%
    20:00 +20°C° 0 mm 2 m/s 750 mmHg 59%
    21:00 +20°C° 0 mm 2 m/s 750 mmHg 61%
    22:00 +19°C° 0 mm 2 m/s 750 mmHg 64%
    23:00 +19°C° 0 mm 1 m/s 751 mmHg 67%

    20 Juillet, Samedi

    Heure Température Précipitation Vent Pression Humidité
    00:00 +19°C° 0 mm 1 m/s 751 mmHg 69%
    01:00 +18°C° 0 mm 1 m/s 751 mmHg 71%
    02:00 +16°C° 0 mm 1 m/s 751 mmHg 73%
    03:00 +18°C° 0 mm 1 m/s 751 mmHg 73%
    04:00 +18°C° 0 mm 1 m/s 751 mmHg 73%
    05:00 +18°C° 0 mm 1 m/s 751 mmHg 73%
    06:00 +21°C° 0 mm 1 m/s 752 mmHg 66%
    07:00 +23°C° 0 mm 1 m/s 752 mmHg 59%
    08:00 +25°C° 0 mm 1 m/s 752 mmHg 52%
    09:00 +26°C° 0 mm 1 m/s 752 mmHg 47%
    10:00 +28°C° 0 mm 1 m/s 752 mmHg 42%
    11:00 +29°C° 0 mm 1 m/s 752 mmHg 37%
    12:00 +29°C° 0 mm 1 m/s 752 mmHg 35%
    13:00 +30°C° 0 mm 1 m/s 752 mmHg 33%
    14:00 +30°C° 0 mm 1 m/s 752 mmHg 31%
    15:00 +30°C° 0 mm 2 m/s 752 mmHg 31%
    16:00 +30°C° 0 mm 2 m/s 752 mmHg 32%
    17:00 +30°C° 0 mm 2 m/s 752 mmHg 33%
    18:00 +28°C° 0 mm 2 m/s 752 mmHg 40%
    19:00 +25°C° 0 mm 2 m/s 752 mmHg 47%
    20:00 +23°C° 0 mm 2 m/s 752 mmHg 54%
    21:00 +21°C° 0 mm 2 m/s 752 mmHg 57%
    22:00 +21°C° 0 mm 2 m/s 752 mmHg 60%
    23:00 +20°C° 0 mm 2 m/s 752 mmHg 63%

    21 Juillet, Dimanche

    Heure Température Précipitation Vent Pression Humidité
    00:00 +20°C° 0 mm 2 m/s 752 mmHg 64%
    01:00 +19°C° 0 mm 2 m/s 752 mmHg 65%
    02:00 +19°C° 0 mm 2 m/s 752 mmHg 66%
    03:00 +19°C° 0 mm 2 m/s 752 mmHg 66%
    04:00 +19°C° 0 mm 2 m/s 752 mmHg 66%
    05:00 +20°C° 0 mm 1 m/s 752 mmHg 66%
    06:00 +23°C° 0 mm 1 m/s 752 mmHg 59%
    07:00 +25°C° 0 mm 1 m/s 752 mmHg 51%
    08:00 +28°C° 0 mm 1 m/s 752 mmHg 44%
    09:00 +29°C° 0 mm 1 m/s 752 mmHg 40%
    10:00 +30°C° 0 mm 1 m/s 752 mmHg 37%
    11:00 +31°C° 0 mm 1 m/s 752 mmHg 33%
    12:00 +32°C° 0 mm 1 m/s 752 mmHg 32%
    13:00 +32°C° 0 mm 1 m/s 751 mmHg 31%
    14:00 +32°C° 0 mm 1 m/s 751 mmHg 30%
    15:00 +32°C° 0 mm 1 m/s 751 mmHg 32%
    16:00 +31°C° 0 mm 1 m/s 751 mmHg 35%
    17:00 +30°C° 0 mm 2 m/s 751 mmHg 37%
    18:00 +29°C° 0 mm 2 m/s 751 mmHg 42%
    19:00 +27°C° 0 mm 1 m/s 751 mmHg 47%
    20:00 +25°C° 0 mm 1 m/s 751 mmHg 52%
    21:00 +24°C° 0 mm 1 m/s 751 mmHg 54%
    22:00 +23°C° 0 mm 1 m/s 751 mmHg 56%
    23:00 +21°C° 0 mm 0 m/s 751 mmHg 58%

    22 Juillet, Lundi

    Heure Température Précipitation Vent Pression Humidité
    00:00 +20°C° 0 mm 0 m/s 751 mmHg 60%
    01:00 +19°C° 0 mm 0 m/s 751 mmHg 61%
    02:00 +19°C° 0 mm 0 m/s 751 mmHg 63%
    03:00 +19°C° 0 mm 0 m/s 751 mmHg 64%
    04:00 +19°C° 0 mm 0 m/s 751 mmHg 65%
    05:00 +20°C° 0 mm 0 m/s 751 mmHg 65%
    06:00 +22°C° 0 mm 0 m/s 751 mmHg 59%
    07:00 +24°C° 0 mm 0 m/s 751 mmHg 53%
    08:00 +28°C° 0 mm 1 m/s 751 mmHg 46%
    09:00 +30°C° 0 mm 1 m/s 751 mmHg 43%
    10:00 +31°C° 0 mm 1 m/s 751 mmHg 40%
    11:00 +32°C° 0 mm 1 m/s 751 mmHg 36%
    12:00 +32°C° 0 mm 1 m/s 751 mmHg 36%
    13:00 +32°C° 0 mm 2 m/s 751 mmHg 36%
    14:00 +32°C° 0 mm 2 m/s 750 mmHg 37%
    15:00 +33°C° 0 mm 3 m/s 750 mmHg 38%
    16:00 +33°C° 0 mm 3 m/s 750 mmHg 39%
    17:00 +31°C° 0 mm 3 m/s 750 mmHg 40%
    18:00 +29°C° 0 mm 3 m/s 750 mmHg 45%
    19:00 +27°C° 0 mm 3 m/s 750 mmHg 50%
    20:00 +25°C° 0 mm 3 m/s 750 mmHg 55%
    21:00 +25°C° 0 mm 3 m/s 750 mmHg 58%
    22:00 +24°C° 0 mm 3 m/s 750 mmHg 62%
    23:00 +22°C° 0 mm 3 m/s 750 mmHg 65%
    Voir plus